Change the Weather History Date:

Friday, August 23, 2013

  Actual Average Record
Temperature  
Mean Temperature 82 °F 74 °F  
Max Temperature 92 °F 86 °F 103 °F (1948)
Min Temperature 71 °F 63 °F 43 °F (1891)
Degree Days  
Heating Degree Days 0 0  
Month to date heating degree days 0 0  
Since 1 June heating degree days 23 17  
Since 1 July heating degree days 3 1  
Cooling Degree Days 17 10  
Month to date cooling degree days 197 256  
Year to date cooling degree days 861 967  
Since 1 June cooling degree days 774 888  
Growing Degree Days 31 (Base 50)    
Moisture  
Dew Point 68 °F    
Average Humidity 69    
Maximum Humidity 93    
Minimum Humidity 44    
Precipitation  
Precipitation T in 0.11 in 1.28 in (1962)
Month to date precipitation 1.11 2.55  
Year to date precipitation 20.45 20.64  
Snow  
Snow 0.00 in 0.00 in - ()
Month to date snowfall 0.0 0.0  
Since 1 July snowfall 0.0 0.0  
Snow Depth 0.00 in    
Sea Level Pressure  
Sea Level Pressure 30.00 in    
Wind  
Wind Speed 11 mph (SE)    
Max Wind Speed 21 mph    
Max Gust Speed 28 mph    
Visibility 10 miles    
Events      
T = Trace of Precipitation, MM = Missing Value Source: NWS Daily Summary

Daily Weather History Graph

Daily Weather History Graph

Search for Another Location

Airport or City:

Trip Planner

Search our weather history database for the weather conditions in past years. The results will help you decide how hot, cold, wet, or windy it might be!

Date:

Astronomy

Aug. 23, 2013 Rise Set
Actual Time 6:45 AM CDT 8:13 PM CDT
Civil Twilight 6:16 AM CDT 8:41 PM CDT
Nautical Twilight 5:41 AM CDT 9:16 PM CDT
Astronomical Twilight 5:05 AM CDT 9:52 PM CDT
Moon 9:30 PM CDT (8/23) 9:43 AM CDT (8/23)
Length of Visible Light 14h 25m
Length of Day
13h 27m
Waning Gibbous, 91% of the Moon is Illuminated
Aug 23
Waning Gibbous
Aug 28
Last Quarter
Sep 5
New
Sep 12
First Quarter
Sep 19
Full

Hourly Weather History & Observations

Time (CDT) Temp. Heat Index Dew Point Humidity Pressure Visibility Wind Dir Wind Speed Gust Speed Precip Events Conditions
12:54 AM 73.0 °F - 68.0 °F 84% 30.05 in 10.0 mi East 4.6 mph - N/A   Overcast
1:54 AM 72.0 °F - 68.0 °F 87% 30.05 in 10.0 mi ENE 4.6 mph - N/A   Mostly Cloudy
2:54 AM 71.1 °F - 68.0 °F 90% 30.04 in 10.0 mi ESE 3.5 mph - N/A   Mostly Cloudy
3:54 AM 71.1 °F - 68.0 °F 90% 30.04 in 10.0 mi ESE 3.5 mph - N/A   Scattered Clouds
4:54 AM 71.1 °F - 68.0 °F 90% 30.04 in 9.0 mi ESE 3.5 mph - N/A   Scattered Clouds
5:54 AM 72.0 °F - 68.0 °F 87% 30.03 in 9.0 mi ESE 3.5 mph - N/A   Partly Cloudy
6:54 AM 72.0 °F - 69.1 °F 91% 30.04 in 9.0 mi ESE 4.6 mph - 0.00 in   Mostly Cloudy
7:54 AM 73.0 °F - 69.1 °F 87% 30.05 in 8.0 mi SE 3.5 mph - N/A   Clear
8:54 AM 75.9 °F - 69.1 °F 79% 30.06 in 9.0 mi SSE 8.1 mph - N/A   Clear
9:54 AM 80.1 °F 82.9 °F 69.1 °F 69% 30.04 in 10.0 mi South 10.4 mph - N/A   Clear
10:54 AM 84.0 °F 87.8 °F 69.1 °F 61% 30.03 in 10.0 mi SSE 9.2 mph - N/A   Clear
11:54 AM 86.0 °F 90.1 °F 69.1 °F 57% 30.02 in 10.0 mi South 12.7 mph - N/A   Clear
12:54 PM 89.1 °F 93.7 °F 69.1 °F 52% 30.00 in 10.0 mi SSE 11.5 mph - N/A   Clear
1:54 PM 90.0 °F 92.8 °F 66.9 °F 46% 29.99 in 10.0 mi South 16.1 mph 24.2 mph N/A   Partly Cloudy
2:54 PM 91.0 °F 93.8 °F 66.0 °F 44% 29.99 in 10.0 mi SSE 18.4 mph 25.3 mph N/A   Partly Cloudy
3:54 PM 90.0 °F 92.4 °F 66.0 °F 45% 29.98 in 10.0 mi South 17.3 mph 21.9 mph N/A   Clear
4:54 PM 91.0 °F 94.3 °F 66.9 °F 45% 29.97 in 10.0 mi SSE 17.3 mph 26.5 mph N/A   Clear
5:54 PM 87.1 °F 89.2 °F 66.0 °F 49% 29.96 in 10.0 mi South 18.4 mph - N/A   Clear
6:54 PM 87.1 °F 89.2 °F 66.0 °F 49% 29.95 in 10.0 mi SSE 18.4 mph 24.2 mph N/A   Clear
7:54 PM 84.9 °F 87.6 °F 66.9 °F 55% 29.94 in 10.0 mi SE 11.5 mph 20.7 mph N/A   Clear
8:54 PM 82.0 °F 84.1 °F 66.0 °F 58% 29.95 in 10.0 mi SSE 12.7 mph - N/A   Clear
9:54 PM 82.0 °F 84.1 °F 66.0 °F 58% 29.96 in 10.0 mi SSE 12.7 mph - N/A   Clear
10:54 PM 80.1 °F 82.1 °F 66.0 °F 62% 29.96 in 10.0 mi SSE 15.0 mph - N/A   Clear
11:54 PM 79.0 °F - 66.0 °F 64% 29.96 in 10.0 mi SSE 16.1 mph - N/A   Clear